24h Messdaten per 21.07.2019 um 21:37:37

Datum Zeit Luftdruck Temp Balkon Feuchte Balkon Temp Strasse Feuchte Strasse Wind km/h Wind Boe Wind aus (Grad) Regen l/15min Licht Lux Sonne h/Monat
21.07.19 21:37:37 1013 19.3 29 23.6 35
21.07.19 21:32:36 1013 19.4 29 23.7 34
21.07.19 21:27:36 1013 19.5 28 23.8 34
21.07.19 21:22:36 1013 19.6 27 24.0 33
21.07.19 21:17:36 1013 24.1 32
21.07.19 21:12:36 1013 20.0 25 24.2 32
21.07.19 21:07:36 1013 20.1 24 24.3 31
21.07.19 21:02:36 1013 20.7 23 24.4 31
21.07.19 20:57:36 1013 21.0 22 24.5 30
21.07.19 20:52:36 1013 21.8 20 24.6 30
21.07.19 20:47:36 1013 22.3 20 24.6 30
21.07.19 20:42:36 1013 23.2 20 24.7 30 0.0
21.07.19 20:37:36 1013 23.9 20 24.9 28 0.0
21.07.19 20:32:36 1013 24.7 20 24.8 28 0.0
21.07.19 20:27:36 1013 25.6 20 24.9 28 0.0
21.07.19 20:22:36 1013 25.0 27 0.0
21.07.19 20:17:36 1013 25.1 27 0.0
21.07.19 20:12:36 1013 25.2 27 0.0
21.07.19 20:07:36 1013 25.0 20 25.2 27 0.0
21.07.19 20:02:36 1013 25.6 20 25.3 27 0.0
21.07.19 19:57:36 1013 26.7 20 25.3 26 0.0
21.07.19 19:52:36 1013 25.2 26 0.0
21.07.19 19:47:36 1013 25.3 25 0.0
21.07.19 19:42:36 1013 25.5 26 0.7 1.4 112.5 0.0
21.07.19 19:37:36 1013 25.6 27 0.7 1.4 112.5 0.0
21.07.19 19:32:36 1013 25.7 27 0.4 1.8 112.5 0.0
21.07.19 19:27:36 1013 25.6 26 0.4 0.0 112.5 0.0
21.07.19 19:22:36 1012 27.8 20 25.6 26 0.4 0.0 112.5 0.0
21.07.19 19:17:36 1012 26.9 20 25.4 26 0.4 0.0 112.5 0.0
21.07.19 19:12:36 1012 25.2 20 25.3 27 0.0 0.0 90 0.0
21.07.19 19:07:36 1013 24.4 20 25.3 26 0.0 0.0 90 0.0
21.07.19 19:02:36 1012 24.4 20 25.3 27 0.0 0.0 247.5 0.0
21.07.19 18:57:36 1012 25.2 20 25.4 27 0.7 0.0 112.5 0.0
21.07.19 18:52:36 1012 25.3 20 25.7 27 0.7 0.0 112.5 0.0
21.07.19 18:47:36 1012 26.9 20 25.7 26 0.4 0.0 112.5 0.0
21.07.19 18:42:36 1012 26.0 20 25.7 27 0.4 0.0 315 0.0
21.07.19 18:37:36 1012 25.1 20 25.7 27 0.4 0.0 315 0.0
21.07.19 18:32:36 1012 27.6 20 25.6 27 1.1 1.8 45 0.0
21.07.19 18:27:36 1012 28.1 20 25.6 28 1.1 2.9 112.5 0.0
21.07.19 18:22:36 1012 26.2 20 25.5 28 1.1 2.9 112.5 0.0
21.07.19 18:17:36 1012 25.7 20 25.5 28 1.1 3.6 112.5 0.0
21.07.19 18:12:36 1013 26.4 20 25.6 28 1.4 4.0 112.5 0.0
21.07.19 18:07:36 1013 27.3 20 25.6 26 1.4 4.0 112.5 0.0
21.07.19 18:02:36 1013 29.1 20 25.9 26 1.8 1.4 0 0.0
21.07.19 17:57:36 1013 29.1 20 26.0 26 1.4 4.0 45 0.0
21.07.19 17:52:37 1013 28.8 20 26.0 25 1.4 4.0 45 0.0
21.07.19 17:47:37 1013 26.7 20 1.4 3.6 67.5 0.0
21.07.19 17:42:37 1013 28.6 20 26.2 26 1.4 0.0 22.5 0.0
21.07.19 17:37:36 1013 30.4 20 26.2 26 1.4 0.0 22.5 0.0
21.07.19 17:32:36 1013 30.0 20 26.0 27 1.4 2.9 135 0.0
21.07.19 17:27:36 1013 28.3 20 25.9 26 1.4 3.2 135 0.0
21.07.19 17:22:36 1013 28.3 20 26.0 25 1.4 3.2 135 0.0
21.07.19 17:17:36 1013 31.4 20 26.0 27 1.4 1.8 135 0.0
21.07.19 17:12:36 1013 26.2 20 26.0 26 1.1 0.0 315 0.0
21.07.19 17:07:36 1013 27.4 20 26.2 26 1.1 0.0 315 0.0
21.07.19 17:02:36 1013 28.4 20 26.3 27 1.8 6.1 112.5 0.0
21.07.19 16:57:36 1013 27.0 20 26.3 27 1.4 1.8 112.5 0.0
21.07.19 16:52:37 1013 26.6 20 26.3 27 1.4 1.8 112.5 0.0
21.07.19 16:47:37 1012 31.0 20 26.2 28 2.5 0.0 180 0.0
21.07.19 16:42:37 1012 27.6 20 26.1 28 3.2 4.3 90 0.0
21.07.19 16:37:36 1012 27.5 20 25.9 28 3.2 4.3 90 0.0
21.07.19 16:32:36 1012 30.4 20 25.9 29 1.8 4.3 67.5 0.0
21.07.19 16:27:36 1012 30.9 20 25.9 29 1.1 0.0 157.5 0.0
21.07.19 16:22:36 1012 31.4 20 26.0 29 1.1 0.0 157.5 0.0
21.07.19 16:17:36 1012 31.0 20 25.9 30 1.4 2.5 315 0.0
21.07.19 16:12:36 1012 29.7 20 25.7 30 2.2 4.3 112.5 0.0
21.07.19 16:07:36 1012 29.4 20 25.4 31 2.2 4.3 112.5 0.0
21.07.19 16:02:36 1012 28.7 20 2.9 4.0 112.5 0.0
21.07.19 15:57:36 1012 28.0 20 25.3 29 2.9 7.2 247.5 0.0
21.07.19 15:52:36 1012 28.8 20 25.3 31 2.9 7.2 247.5 0.0
21.07.19 15:47:36 1012 30.4 20 25.6 30 2.9 7.2 135 0.0
21.07.19 15:42:36 1013 27.5 20 25.3 31 2.5 5.8 112.5 0.0
21.07.19 15:37:37 1013 27.6 20 25.3 31 2.5 5.8 112.5 0.0
21.07.19 15:32:37 1012 27.6 20 25.2 31 2.2 5.0 135 0.0
21.07.19 15:27:37 1012 25.1 20 24.9 30 2.9 3.6 67.5 0.0
21.07.19 15:22:36 1012 25.6 20 26.3 27 2.9 3.6 67.5 0.0
21.07.19 15:17:36 1012 27.0 20 26.4 26 2.9 5.4 180 0.0
21.07.19 15:12:36 1012 28.4 20 26.3 27 1.8 3.2 112.5 0.0
21.07.19 15:07:38 1012 26.0 20 26.1 26 1.8 3.2 112.5 0.0
21.07.19 15:02:38 1012 25.7 20 26.2 25 2.2 2.5 67.5 0.0
21.07.19 14:57:37 1012 26.1 20 26.3 27 3.6 4.0 112.5 0.0
21.07.19 14:52:36 1012 28.2 20 26.2 27 3.6 4.0 112.5 0.0
21.07.19 14:47:36 1012 28.6 20 26.3 27 3.6 4.0 90 0.0
21.07.19 14:42:36 1012 29.3 20 26.0 26 2.5 2.2 247.5 0.0
21.07.19 14:37:38 1012 25.9 20 26.0 28 2.5 2.2 247.5 0.0
21.07.19 14:32:38 1012 28.0 20 25.3 28 2.2 2.5 67.5 0.0
21.07.19 14:27:37 1012 24.7 20 2.9 7.6 45 0.0
21.07.19 14:22:37 1012 25.2 20 25.4 30 2.9 7.6 45 0.0
21.07.19 14:17:37 1012 25.1 20 25.8 28 2.5 2.9 112.5 0.0
21.07.19 14:12:37 1012 26.1 20 1.8 2.5 90 0.0
21.07.19 14:07:38 1012 26.0 20 25.5 33 1.8 2.5 90 0.0
21.07.19 14:02:38 1012 24.5 20 25.2 35 2.5 2.2 0 0.0
21.07.19 13:57:37 1012 24.2 20 25.2 34 2.5 9.0 112.5 0.0
21.07.19 13:52:37 1012 27.4 20 24.9 35 2.5 9.0 112.5 0.0
21.07.19 13:47:37 1012 25.3 20 25.0 35 2.2 2.5 135
21.07.19 13:42:37 1012 28.8 20 24.9 36 2.2 4.7 67.5 0.0
21.07.19 13:37:37 1012 27.1 20 24.4 35 2.2 4.7 67.5 0.0
21.07.19 13:32:37 1012 25.6 20 24.7 34 2.2 0.0 247.5 0.0
21.07.19 13:27:37 1012 24.6 20 25.6 32 2.9 3.2 135 0.0
21.07.19 13:22:37 1012 27.0 20 25.7 32 2.9 3.2 135 0.0
21.07.19 13:17:37 1012 28.9 20 25.5 33 3.2 3.6 112.5 0.0
21.07.19 13:12:37 1012 25.8 20 25.4 34 3.6 1.8 22.5 0.0
21.07.19 13:07:37 1012 25.6 20 24.8 36 3.6 1.8 22.5 0.0
21.07.19 13:02:37 1012 24.1 20 24.8 37 3.6 4.7 90 0.0
21.07.19 12:57:37 1012 28.4 20 24.5 38 2.2 3.6 157.5 0.0
21.07.19 12:52:37 1012 25.0 20 24.5 40 2.2 3.6 157.5 0.0
21.07.19 12:47:37 1012 27.0 20 23.8 40 1.8 3.2 315 0.0
21.07.19 12:42:37 1012 27.4 20 23.3 41 3.6 4.0 90 0.0
21.07.19 12:37:37 1012 25.6 20 23.5 42 3.6 4.0 90 0.0
21.07.19 12:32:37 1012 27.9 20 23.8 41 3.2 4.3 112.5 0.0
21.07.19 12:27:37 1012 21.9 23 23.9 43 3.6 6.1 112.5 0.0
21.07.19 12:22:37 1012 24.4 21 23.5 44 3.6 6.1 112.5 0.0
21.07.19 12:17:37 1012 24.2 23 23.4 43 2.9 2.2 315 0.0
21.07.19 12:12:37 1012 22.6 24 23.9 41 2.5 2.9 112.5 0.0
21.07.19 12:07:37 1012 24.2 21 24.2 41 2.5 2.9 112.5 0.0
21.07.19 12:02:37 1012 22.8 20 24.3 41 2.2 2.2 90 0.0
21.07.19 11:57:37 1012 25.1 20 24.5 41 1.8 0.0 135 0.0
21.07.19 11:52:37 1012 24.3 20 24.2 42 1.8 0.0 135 0.0
21.07.19 11:47:37 1012 24.0 20 24.2 42 1.8 2.5 337.5 0.0
21.07.19 11:42:37 1012 23.5 21 24.2 43 1.4 0.0 45 0.0
21.07.19 11:37:37 1012 24.0 22 24.2 43 1.4 0.0 45 0.0
21.07.19 11:32:37 1011 22.7 22 24.1 44 2.5 0.0 135 0.0
21.07.19 11:27:37 1011 22.7 26 23.7 46 2.5 1.4 90 0.0
21.07.19 11:22:38 1011 23.0 26 23.5 47 2.5 1.4 90 0.0
21.07.19 11:17:38 1011 22.3 24 23.3 47 2.5 8.3 112.5 0.0
21.07.19 11:12:38 1011 22.6 24 23.3 49 2.9 3.2 112.5 0.0
21.07.19 11:07:37 1011 22.6 25 2.9 3.2 112.5 0.0
21.07.19 11:02:37 1011 21.8 27 22.9 50 2.5 4.3 135 0.0
21.07.19 10:57:37 1011 23.9 24 22.5 54 3.2 2.9 90 0.0
21.07.19 10:52:37 1011 22.8 26 22.4 54 3.2 2.9 90 0.0
21.07.19 10:47:37 1011 21.6 27 22.1 55 2.9 3.2 67.5 0.0
21.07.19 10:42:37 1011 22.8 26 21.8 58 2.9 5.8 90 0.0
21.07.19 10:37:37 1011 21.1 29 21.4 59 2.9 5.8 90 0.0
21.07.19 10:32:37 1011 22.0 28 21.3 58 2.9 2.2 247.5 0.0
21.07.19 10:27:37 1011 21.3 28 21.2 59 2.9 3.6 90 0.0
21.07.19 10:22:38 1011 20.7 29 21.0 60 2.9 3.6 90 0.0
21.07.19 10:17:38 1011 20.4 30 21.0 61 2.9 3.2 22.5 0.0
21.07.19 10:12:38 1010 24.0 27 20.9 62 4.0 5.0 112.5 0.0
21.07.19 10:07:37 1010 19.8 32 20.5 62 4.0 5.0 112.5 0.0
21.07.19 10:02:37 1010 19.5 33 20.4 63 4.0 5.0 112.5 0.0
21.07.19 09:57:37 1010 18.8 34 20.2 64 3.6 7.9 112.5 0.0
21.07.19 09:52:37 1010 18.9 34 20.1 65 3.6 7.9 112.5 0.0
21.07.19 09:47:37 1010 18.6 35 20.0 65 3.2 2.5 90 0.0
21.07.19 09:42:37 1010 19.0 36 19.9 65 4.0 4.7 67.5 0.0
21.07.19 09:37:37 1010 18.1 37 19.8 65 4.0 4.7 67.5 0.0
21.07.19 09:32:37 1010 18.5 35 19.8 66 3.6 8.3 112.5 0.0
21.07.19 09:27:37 1010 18.6 35 19.7 66 5.4 4.7 112.5 0.0
21.07.19 09:22:38 1010 18.8 37 19.6 66 5.4 4.7 112.5 0.0
21.07.19 09:17:38 1010 18.0 36 19.6 67 4.7 4.7 90 0.0
21.07.19 09:12:38 1010 18.6 37 19.6 67 4.3 2.2 225 0.0
21.07.19 09:07:38 1010 18.0 38 19.4 67 4.3 2.2 225 0.0
21.07.19 09:02:38 1010 19.4 67 4.7 3.6 112.5 0.0
21.07.19 08:57:38 1010 17.1 40 19.3 67 4.0 5.0 90 0.0
21.07.19 08:52:38 1010 17.1 39 19.4 67 4.0 5.0 90 0.0
21.07.19 08:47:38 1010 18.3 37 19.4 67 3.6 6.1 112.5 0.0
21.07.19 08:42:38 1010 18.4 35 19.4 68 3.6 5.4 112.5 0.0
21.07.19 08:37:38 1010 19.4 35 19.3 68 3.6 5.4 112.5 0.0
21.07.19 08:32:38 1009 18.1 36 19.2 68 2.9 4.0 112.5 0.0
21.07.19 08:27:38 1009 17.7 37 19.1 68 3.6 6.8 112.5 0.0
21.07.19 08:22:38 1009 18.5 37 19.1 68 3.6 6.8 112.5 0.0
21.07.19 08:17:38 1009 17.5 38 19.1 69 3.2 6.1 90 0.0
21.07.19 08:12:38 1009 17.6 41 18.9 69 3.2 6.1 157.5 0.0
21.07.19 08:07:38 1009 16.3 43 18.9 70 3.2 6.1 157.5 0.0
21.07.19 08:02:38 1009 16.1 45 18.9 70 3.6 5.8 135 0.0
21.07.19 07:57:38 1009 15.9 45 18.8 70 2.2 3.2 112.5 0.0
21.07.19 07:52:38 1009 15.8 45 18.7 71 2.2 3.2 112.5 0.0
21.07.19 07:47:38 1009 15.7 46 18.6 72 2.5 3.6 112.5 0.0
21.07.19 07:42:38 1009 15.6 46 18.6 72 2.2 3.2 315 0.0
21.07.19 07:37:38 1009 15.6 46 18.4 73 2.2 3.2 315 0.0
21.07.19 07:32:38 1009 15.6 46 18.2 74 2.2 6.1 135 0.0
21.07.19 07:27:38 1009 15.4 47 18.2 74 2.5 2.2 135 0.0
21.07.19 07:22:38 1009 15.3 48 18.0 75 2.5 2.2 135 0.0
21.07.19 07:17:38 1009 15.3 47 17.9 75 2.5 5.4 112.5 0.0
21.07.19 07:12:38 1009 15.2 48 17.9 75 2.5 4.3 112.5 0.0
21.07.19 07:07:38 1009 15.0 50 17.9 76 2.5 4.3 112.5 0.0
21.07.19 07:02:38 1009 14.8 51 17.9 76 3.2 1.4 337.5 0.0
21.07.19 06:57:38 1008 14.7 51 17.8 77 3.2 3.6 135 0.0
21.07.19 06:52:39 1008 14.8 52 17.8 77 3.2 3.6 135 0.0
21.07.19 06:47:38 1008 14.7 53 17.8 77 2.9 7.6 112.5 0.0
21.07.19 06:42:38 1008 14.6 53 17.8 78 3.2 5.0 112.5 0.0
21.07.19 06:37:38 14.5 53 17.6 78 3.2 5.0 112.5 0.0
21.07.19 06:32:38 1008 14.5 53 17.6 78 4.3 10.4 135 0.0
21.07.19 06:27:38 1008 14.6 53 17.5 78 4.0 4.3 225 0.0
21.07.19 06:22:38 1008 14.3 54 17.5 78 4.0 4.3 225 0.0
21.07.19 06:17:38 1008 14.4 54 17.5 78 4.0 7.6 90 0.0
21.07.19 06:12:38 1008 14.4 54 17.5 78 4.0 5.0 112.5 0.0
21.07.19 06:07:38 1008 14.3 54 17.4 77 4.0 5.0 112.5 0.0
21.07.19 06:02:38 1008 14.3 54 17.5 77 3.6 1.4 67.5 0.0
21.07.19 05:57:38 1008 14.4 55 17.5 77 5.0 6.5 112.5 0.0
21.07.19 05:52:38 1008 14.4 55 17.6 76 5.0 6.5 112.5 0.0
21.07.19 05:47:38 1008 14.3 55 17.6 75 4.7 4.7 22.5 0.0
21.07.19 05:42:38 1008 14.2 55 4.7 10.4 112.5 0.0
21.07.19 05:37:38 1008 14.1 56 17.7 75 4.7 10.4 112.5 0.0
21.07.19 05:32:38 1008 14.2 55 17.7 75 5.4 7.9 112.5 0.0
21.07.19 05:27:38 1008 14.3 55 5.0 9.0 180 0.0
21.07.19 05:22:38 1008 14.2 55 17.8 74 5.0 9.0 180 0.0
21.07.19 05:17:38 1007 14.1 56 17.9 73 5.0 2.9 45 0.0
21.07.19 05:12:38 1007 14.0 54 17.9 73 4.7 6.8 90 0.0
21.07.19 05:07:38 1007 14.3 55 17.9 72 4.7 6.8 90 0.0
21.07.19 05:02:38 1007 14.2 53 18.0 72 3.2 10.8 67.5 0.0
21.07.19 04:57:38 1007 14.6 52 18.0 71 2.9 4.7 112.5 0.0
21.07.19 04:52:38 1007 14.5 52 18.2 71 2.9 4.7 112.5 0.0
21.07.19 04:47:38 1007 14.4 50 18.2 71 2.9 9.0 112.5 0.0
21.07.19 04:42:38 1007 14.7 49 2.5 2.5 67.5 0.0
21.07.19 04:37:38 1007 15.1 50 18.2 71 2.5 2.5 67.5 0.0
21.07.19 04:32:38 1007 14.9 49 18.2 71 2.9 2.9 90 0.0
21.07.19 04:27:38 1007 14.7 50 18.2 71 3.2 5.8 135 0.0
21.07.19 04:22:38 1007 18.2 71 3.2 5.8 135 0.0
21.07.19 04:17:38 1007 14.4 50 18.2 71 2.9 0.0 135 0.0
21.07.19 04:12:38 1007 14.7 52 18.3 71 3.2 4.7 67.5 0.0
21.07.19 04:07:38 1007 14.8 51 18.3 71 3.2 4.7 67.5 0.0
21.07.19 04:02:38 1007 14.9 51 18.4 71 2.5 2.5 67.5 0.0
21.07.19 03:57:38 1007 15.0 50 18.4 70 2.5 3.6 112.5 0.0
21.07.19 03:52:38 1007 15.1 51 18.4 70 2.5 3.6 112.5 0.0
21.07.19 03:47:38 1007 14.7 51 18.5 70 2.5 5.0 112.5 0.0
21.07.19 03:42:38 1007 15.1 50 18.6 69 1.8 6.1 67.5 0.0
21.07.19 03:37:38 1007 14.8 48 1.8 6.1 67.5 0.0
21.07.19 03:32:38 1007 15.0 48 18.7 68 2.2 1.8 0 0.0
21.07.19 03:27:38 1007 15.4 47 18.8 68 1.8 5.0 22.5 0.0
21.07.19 03:22:39 1007 15.5 47 18.9 68 1.8 5.0 22.5 0.0
21.07.19 03:17:39 1007 15.3 47 18.9 68 1.4 3.2 22.5 0.0
21.07.19 03:12:38 1007 15.5 47 19.0 67 1.4 2.2 135 0.0
21.07.19 03:07:38 15.6 46 19.0 67 1.4 2.2 135 0.0
21.07.19 03:02:38 1006 15.7 44 19.0 67 1.4 2.9 112.5 0.0
21.07.19 02:57:38 1006 15.9 44 1.1 1.8 90 0.0
21.07.19 02:51:37 1007 15.8 44 19.0 67 1.1 2.9 135 0.0
21.07.19 02:46:37 1007 15.9 44 19.1 67 1.4 1.8 67.5 0.0
21.07.19 02:41:37 1006 15.9 45 19.1 67 1.4 2.9 67.5 0.0
21.07.19 02:36:37 1006 19.1 68 1.4 0.0 247.5 0.0
21.07.19 02:31:37 1007 15.7 46 19.2 68 2.2 2.5 90 0.0
21.07.19 02:26:37 1006 16.0 45 19.2 68 1.8 2.9 157.5 0.0
21.07.19 02:21:37 1006 15.7 46 19.3 68 1.8 2.9 135 0.0
21.07.19 02:16:37 1006 15.6 46 1.4 3.2 112.5 0.0
21.07.19 02:11:37 1006 15.9 47 19.3 68 1.4 4.0 112.5 0.0
21.07.19 02:06:38 1006 15.8 47 19.4 68 1.4 2.9 112.5 0.0
21.07.19 02:01:38 1006 15.9 47 19.6 67 2.2 1.8 67.5 0.0
21.07.19 01:56:38 1006 16.1 45 19.6 67 1.8 3.2 90 0.0
21.07.19 01:51:37 1006 16.4 44 19.7 67 1.4 5.4 112.5 0.0
21.07.19 01:46:37 1006 16.4 44 19.8 66 1.4 0.0 67.5 0.0
21.07.19 01:41:37 1006 16.6 43 1.4 4.3 45 0.0
21.07.19 01:36:37 1006 16.4 44 20.0 65 1.8 2.2 112.5 0.0
21.07.19 01:31:37 1006 16.5 44 20.0 66 1.8 1.8 90 0.0
21.07.19 01:26:37 1006 16.4 44 20.2 66 1.8 2.9 67.5 0.0
21.07.19 01:21:37 1006 16.4 44 20.2 66 1.4 2.2 112.5 0.0
21.07.19 01:16:37 1006 16.9 43 20.3 66 1.1 4.0 112.5 0.0
21.07.19 01:11:37 1006 16.7 44 20.4 67 0.7 0.0 112.5 0.0
21.07.19 01:06:38 1006 16.8 44 20.4 67 2.2 0.0 45 0.0
21.07.19 01:01:38 1006 17.0 43 20.5 67 2.5 0.0 67.5 0.0
21.07.19 00:56:38 1006 17.1 44 20.6 68 2.9 3.2 67.5 0.0
21.07.19 00:51:37 1006 17.2 44 20.7 69 3.2 6.1 67.5 0.0
21.07.19 00:46:37 1006 20.7 69 2.5 2.5 67.5 0.0
21.07.19 00:41:37 1006 17.4 45 20.8 70 2.2 2.9 112.5 0.0
21.07.19 00:36:38 1006 17.3 45 20.9 70 2.9 2.9 67.5 0.0
21.07.19 00:31:38 1006 17.6 46 21.0 70 2.9 3.2 67.5 0.0
21.07.19 00:26:38 1006 17.8 45 21.0 69 2.2 4.0 67.5 0.0
21.07.19 00:21:37 1006 17.8 44 21.1 70 1.8 5.4 0 0.0
21.07.19 00:16:37 1006 17.9 44 21.2 70 1.8 2.9 45 0.0
21.07.19 00:11:37 1006 17.8 44 21.2 70 1.8 2.9 67.5 0.0
21.07.19 00:06:38 1006 17.6 43 21.2 70 2.2 2.5 112.5 0.0
21.07.19 00:01:38 1006 18.0 42 21.2 71 2.2 3.2 90 0.0
20.07.19 23:56:37 1006 18.1 43 21.3 72 2.2 3.6 112.5 0.0
20.07.19 23:51:38 1006 18.2 43 21.3 72 2.5 1.8 67.5 0.0
20.07.19 23:46:38 1006 18.4 43 21.3 74 1.8 3.2 112.5 0.0
20.07.19 23:41:38 1006 18.4 44 21.3 75 1.8 2.9 112.5 0.0
20.07.19 23:36:38 1006 18.3 45 21.3 77 1.4 3.2 112.5 0.0
20.07.19 23:31:38 1006 18.4 46 21.3 78 1.1 2.5 135 0.0
20.07.19 23:26:38 1006 18.1 50 21.4 79 1.4 4.0 90 0.0
20.07.19 23:21:38 1006 18.1 50 21.4 79 1.4 2.5 112.5 0.0
20.07.19 23:16:38 1005 18.1 50 21.4 80 0.7 1.8 22.5 0.0
20.07.19 23:11:38 1005 17.9 51 21.4 81 0.7 0.0 45 0.0
20.07.19 23:06:38 1005 17.9 55 21.4 82 1.4 2.5 135 0.0
20.07.19 23:01:38 1005 17.9 57 21.5 83 1.4 4.3 67.5 0.0
20.07.19 22:56:38 1005 17.7 60 21.6 83 1.1 0.0 270 0.0
20.07.19 22:51:38 1005 17.9 60 21.6 83 1.1 2.2 90 0.0
20.07.19 22:46:38 1005 18.1 60 21.6 83 1.1 3.6 135 0.0
20.07.19 22:41:38 1005 18.1 58 21.7 83 0.7 0.0 45 0.0
20.07.19 22:36:38 1005 18.3 59 21.8 83 0.7 1.8 67.5 0.0
20.07.19 22:31:38 1005 18.0 61 21.8 83 1.1 0.0 45 0.0
20.07.19 22:26:38 1005 18.2 62 21.9 82 0.7 1.8 67.5 0.0
20.07.19 22:21:38 1005 18.1 63 22.0 82 0.4 2.9 135 0.0
20.07.19 22:16:38 1005 17.9 60 22.0 82 0.0 0.0 135 0.0
20.07.19 22:11:38 1004 22.1 81 0.0 0.0 270 0.0
20.07.19 22:06:38 1004 18.3 59 22.2 80 0.4 1.4 315 0.0
20.07.19 22:01:38 1004 18.5 59 22.2 80 0.0 2.5 90 0.0
20.07.19 21:56:38 1004 18.2 59 22.3 79 0.4 0.0 67.5 0.0
20.07.19 21:51:38 1004 22.4 79 0.7 0.0 67.5 0.0
20.07.19 21:46:38 1004 18.6 56 0.7 0.0 315 0.0
20.07.19 21:41:38 1004 18.8 54 22.5 78 1.1 0.0 67.5 0.0
Index
© 2002-2012 Thomas Dreßler
Alle Rechte vorbehalten
letzte Scriptänderung 12.11.2012